Miscellaneous Local Product
Issued by NWS North Platte, NE

Home | Current Version | Previous Version | Text Only | Print | Product List | Glossary On
Versions: 1 2 3 4 5 6 7 8 9 10 11 12 13 14 15 16 17 18 19 20 21 22 23 24 25 26 27 28 29 30 31 32 33 34 35 36 37 38 39 40 41 42 43 44 45 46 47 48 49 50
000
AXUS43 KLBF 240210
MISLBF


WESTERN AND NORTH CENTRAL NEBRASKA HOURLY WEATHER ROUNDUP
NATIONAL WEATHER SERVICE NORTH PLATTE NE
900 PM CDT WED JUL 23 2014

***STATIONS NOT REPORTING VARIABLES SUCH AS SKY/WEATHER OR
PRESSURE ARE PROVIDED BY THE NEBRASKA DEPARTMENT OF
ROADS...RAWS...AND APRS NETWORKS...AND ARE NOT UNDER
NATIONAL WEATHER SERVICE QUALITY CONTROL***

...OBSERVATIONS IN AND NEAR THE EASTERN PANHANDLE OF NEBRASKA...

CITY           SKY/WX    TMP DP  RH WIND       PRES   REMARKS
PINE RIDGE     PTCLDY    80  63  55 E12G21    30.07F
CHADRON        PTCLDY    89  65  44 S9        30.03F HX  91
ALLIANCE       MOCLDY    84  64  50 SE15      30.12S
SIDNEY         CLEAR     87  61  41 SE15      30.16F
WHITECLAY        N/A     81  61  50 SE14        N/A
RUSHVILLE        N/A     86  60  40 SE24        N/A
GORDON           N/A     85  60  43 SE21        N/A
CRESCENT LAKE    N/A     79  63  58 SE12G21     N/A
LISCO            N/A     85  65  51 E18         N/A
BIG SPRINGS      N/A     86  70  59 SE9         N/A  HX  91
$$

...OBSERVATIONS IN NORTH CENTRAL NEBRASKA...

CITY           SKY/WX    TMP DP  RH WIND       PRES   REMARKS
VALENTINE      CLEAR     80  58  46 SE13      30.13S
THEDFORD       CLEAR     78  60  53 SE13      30.17S
AINSWORTH      CLEAR     76  55  49 SE10      30.16S
O`NEILL        CLEAR     74  58  56 E8        30.17S
ORD            CLEAR     74  60  61 SE5       30.16S
BROKEN BOW     CLEAR     74  61  63 SE10      30.18S
BROWNLEE         N/A     80  53  39 SE12        N/A
SPRINGVIEW       N/A     76  61  59 E7          N/A
DUNNING          N/A     76  62  61 SE8         N/A
ROSE             N/A     76  64  65 E7          N/A
NEWPORT          N/A     69  64  82 E7          N/A
SARGENT          N/A     73  61  67 CALM        N/A
COMSTOCK         N/A     77  67  72 SE5         N/A
CHAMBERS         N/A     73  57  57 E3          N/A
$$

...OBSERVATIONS IN SOUTHWEST NEBRASKA AND FAR NORTHEAST COLORADO...

CITY           SKY/WX    TMP DP  RH WIND       PRES   REMARKS
WRAY             N/A     87  59  39 SE7       30.15F
HOLYOKE        FAIR      81  64  57 E7        30.15F
IMPERIAL       CLEAR     77  63  61 SE16      30.15F
OGALLALA       PTCLDY    76  65  69 E9        30.15S
NORTH PLATTE   CLEAR     73  63  70 E12       30.17R
MCCOOK         CLEAR     75  65  70 E10       30.16R
LEXINGTON      CLEAR     75  63  65 E8        30.17S
PAXTON           N/A     80  68  67 SE8         N/A
SUTHERLAND       N/A     78  73  82 E8          N/A
BRADY            N/A     74  62  66 CALM        N/A
GOTHENBURG       N/A     78  60  53 E6          N/A
CALLAWAY         N/A     79  67  66 SE12        N/A
$$

...NORTH PLATTE AREA...

CITY           SKY/WX    TMP DP  RH WIND       PRES   REMARKS
AIRPORT        CLEAR     73  63  70 E12       30.17R
$$

...SOME WEATHER OBSERVATIONS FROM AROUND THE REGION...

CITY           SKY/WX    TMP DP  RH WIND       PRES   REMARKS
DENVER         CLOUDY    82  43  25 S14       30.24F
LARAMIE        LGT RAIN  72  48  42 MISG      30.36S
CHEYENNE       MOCLDY    77  62  59 S13G21    30.28R
SCOTTSBLUFF    MOCLDY    84  69  60 SE9       30.10F
RAPID CITY     CLEAR     76  67  73 SE5       30.06F
PIERRE         PTCLDY    78  53  41 SE15      30.07F
WINNER         FAIR      80  54  40 SE14      30.11F
SIOUX FALLS    PTCLDY    72  56  57 E5        30.17S
OMAHA          PTCLDY    78  61  55 NE5       30.14S
GRAND ISLAND   CLEAR     74  62  66 SE3       30.17S
KANSAS CITY    PTCLDY    77  64  64 NE8       30.12R
WICHITA        PTCLDY    81  64  56 E8        30.10R
HAYS           CLEAR     79  61  53 E14       30.14R
LIBERAL        CLEAR     88  66  48 E14       30.15R HX  90
GOODLAND       PTCLDY    79  63  57 SE7       30.18S
$$



USA.gov is the U.S. government's official web portal to all federal, state and local government web resources and services.